www.pogodaiklimat.ru
ПОГОДА в Пршимде

Архив погоды в Пршимде (Чехия)

Время
(UTC), дата
22 25.01
23 25.01
00 26.01
01 26.01
02 26.01
03 26.01
04 26.01
05 26.01
06 26.01
07 26.01
08 26.01
09 26.01
10 26.01
11 26.01
12 26.01
13 26.01
14 26.01
15 26.01
16 26.01
17 26.01
18 26.01
19 26.01
20 26.01
21 26.01
22 26.01
23 26.01
00 27.01
01 27.01
02 27.01
03 27.01
04 27.01
05 27.01
06 27.01
07 27.01
08 27.01
09 27.01
10 27.01
11 27.01
12 27.01
13 27.01
14 27.01
15 27.01
16 27.01
17 27.01
18 27.01
19 27.01
20 27.01
21 27.01
22 27.01
23 27.01
00 28.01
01 28.01
02 28.01
03 28.01
04 28.01
05 28.01
06 28.01
07 28.01
08 28.01
09 28.01
10 28.01
11 28.01
12 28.01
13 28.01
14 28.01
15 28.01
16 28.01
17 28.01
18 28.01
19 28.01
20 28.01
21 28.01
22 28.01
23 28.01
00 29.01
01 29.01
02 29.01
03 29.01
04 29.01
05 29.01
06 29.01
07 29.01
08 29.01
09 29.01
10 29.01
11 29.01
12 29.01
13 29.01
14 29.01
15 29.01
16 29.01
17 29.01
18 29.01
19 29.01
20 29.01
21 29.01
22 29.01
23 29.01
00 30.01
01 30.01
02 30.01
03 30.01
04 30.01
05 30.01
06 30.01
07 30.01
08 30.01
09 30.01
10 30.01
11 30.01
12 30.01
13 30.01
14 30.01
15 30.01
16 30.01
17 30.01
18 30.01
19 30.01
20 30.01
21 30.01
22 30.01
23 30.01
00 31.01
01 31.01
02 31.01
03 31.01
04 31.01
05 31.01
06 31.01
07 31.01
08 31.01
09 31.01
10 31.01
11 31.01
12 31.01
13 31.01
14 31.01
15 31.01
16 31.01
17 31.01
18 31.01
19 31.01
20 31.01
21 31.01
22 31.01
23 31.01
00 1.02
01 1.02
02 1.02
03 1.02
04 1.02
05 1.02
06 1.02
07 1.02
08 1.02
09 1.02
10 1.02
11 1.02
12 1.02
13 1.02
14 1.02
15 1.02
17 1.02
18 1.02
19 1.02
20 1.02
21 1.02
Ветер
(напр.,м/с)
Видим. Явления Облачность Т
(С)
Тd
(С)
f
(%)
Тe
(С)
Тes
(С)
Комфортность P
(гПа)
Po
(гПа)
Тmin
(С)
Tmax
(С)
R
(мм)
R24
(мм)
S
(см)
ЮЗ 1 100 м туман н/о -3.5 -4.2 95 -6 -6 1026.3 934.4
ЮЗ 1 300 м туман н/о -3.5 -4.2 95 -6 -6 1025.3 933.5
З 2 200 м туман н/о -3.9 -4.7 94 -8 -8 1024.6 932.8
З 1 200 м туман н/о -4.0 -4.7 95 -6 -6 1024.2 932.4
Ю 1 <100 м туман н/о -4.6 -5.5 93 -7 -7 1024.0 932.0
З 1 200 м туман н/о -4.3 -5.1 94 -7 -7 1023.5 931.6 0.1
штиль 0 <100 м туман н/о -4.2 -5.0 94 -5 -5 1023.0 931.2
штиль 0 100 м туман н/о -4.2 -5.0 94 -5 -5 1022.7 930.9
З 1 800 м переохл. туман [диам. сложн. отлож. 24 мм] ?/? -4.2 -5.0 94 -7 -7 1022.8 931.0 -4.6 5
З 1 600 м переохл. туман ?/? -4.1 -4.9 94 -7 -7 1022.7 931.0
З 2 900 м переохл. туман ?/? -4.3 -5.2 93 -9 -9 1022.6 930.8
З 1 400 м переохл. туман [диам. сложн. отлож. 24 мм] ?/? -4.0 -4.8 94 -6 -6 1022.4 930.7 0.1
З 1 700 м переохл. туман ?/? -3.9 -4.7 94 -6 -6 1022.3 930.7
С 2 900 м переохл. туман ?/? -3.8 -4.7 93 -8 -8 1022.0 930.4
С 1 1500 м в посл. час туман [диам. сложн. отлож. 25 мм] 10/10 30 м
[St]
-3.6 -4.3 95 -6 -6 1021.6 930.1
С 1 1000 м дымка 10/10 30 м
[St]
-3.7 -4.5 94 -6 -6 1021.1 929.6
СВ 1 500 м переохл. туман ?/? -3.7 -4.5 94 -6 -6 1020.7 929.3
СВ 1 600 м переохл. туман [диам. сложн. отлож. 25 мм] ?/? -3.8 -4.6 94 -6 -6 1020.9 929.4 0.1
СВ 1 600 м туман н/о -3.8 -4.5 95 -6 -6 1021.1 929.6
С 1 1100 м дымка н/о -3.7 -4.5 94 -6 -6 1021.2 929.7
С 1 300 м переохл. туман [диам. сложн. отлож. 25 мм] ?/? -3.7 -4.5 94 -6 -6 1021.2 929.7 -3.5
С 1 300 м переохл. туман ?/? -3.6 -4.3 95 -6 -6 1021.2 929.8
З 1 300 м переохл. туман ?/? -3.6 -4.3 95 -6 -6 1021.0 929.6
С 1 1800 м слаб. дождь н/о -3.6 -4.4 94 -6 -6 1021.1 929.7 0.1
С 1 400 м слаб. переохл. морось (гололёд) н/о -3.7 -4.5 94 -6 -6 1021.1 929.6
С 2 100 м туман н/о -3.7 -4.5 94 -8 -8 1020.7 929.3
С 1 100 м туман н/о -3.7 -4.5 94 -6 -6 1020.5 929.1 0.1
С 1 200 м туман н/о -3.7 -4.5 94 -6 -6 1020.6 929.2
СВ 1 200 м туман н/о -3.6 -4.4 94 -6 -6 1020.8 929.4
СВ 1 200 м туман н/о -3.8 -4.6 94 -6 -6 1020.7 929.2 0.1
С 1 200 м слаб. снег н/о -3.8 -4.5 95 -6 -6 1020.4 929.0
СВ 1 200 м слаб. ливневой снег н/о -3.8 -4.6 94 -6 -6 1021.0 929.5
С 2 800 м слаб. снег [диам. сложн. отлож. 27 мм] ?/? -4.1 -4.9 94 -8 -8 1021.6 930.0 -4.1 0.2 0.2 5
С 1 1500 м слаб. снег {туман} 10/10 30 м
[Frnb]
-4.3 -5.1 94 -7 -7 1021.9 930.2
С 2 1000 м в посл. час снег 10/10 30 м
[St]
-4.3 -5.2 93 -9 -9 1022.3 930.5
СВ 1 400 м переохл. туман {снег} [диам. сложн. отлож. 27 мм] ?/? -4.2 -5.1 93 -7 -7 1022.3 930.6 0.1
СВ 2 5000 м в посл. час туман 10/10 60 м
[St]
-3.9 -4.8 93 -8 -8 1022.7 931.0
СВ 2 9000 м дымка 10/10 90 м
[St]
-3.7 -4.6 93 -8 -8 1022.6 931.0
СВ 2 22 км {снег, туман} [диам. сложн. отлож. 28 мм] 10/10 120 м
[St]
-3.6 -4.5 93 -8 -8 1022.2 930.7 0.0
В 2 25 км 10/10 180 м
[St]
-3.5 -4.3 94 -8 -8 1022.0 930.5
СВ 2 20 км 10/10 150 м
[St]
-3.6 -4.5 93 -8 -8 1022.5 930.9
В 2 17 км в посл. час зёрна {снег} [диам. сложн. отлож. 28 мм] 10/10 120 м
[St]
-3.7 -4.5 94 -8 -8 1022.6 931.0 0.1
В 2 8000 м слаб. ливневой снег н/о -3.8 -4.6 94 -8 -8 1023.0 931.3
В 3 10 км слаб. ливневой снег н/о -3.8 -4.6 94 -9 -9 1023.4 931.7
В 3 4200 м слаб. снег [диам. сложн. отлож. 28 мм] 10/10 60 м
[Frnb]
-3.7 -4.5 94 -9 -9 1023.6 931.9 -3.4 0.0
В 3 1800 м слаб. снег 10/10 30 м
[Frnb]
-3.7 -4.5 94 -9 -9 1024.1 932.4
В 3 1500 м слаб. снег 10/10 30 м
[Frnb]
-3.6 -4.4 94 -9 -9 1024.3 932.6
В 3 1800 м в посл. час снег н/о -3.6 -4.4 94 -9 -9 1024.5 932.8 0.1
В 4 1400 м в посл. час снег н/о -3.5 -4.3 94 -10 -10 1024.4 932.7
В 4 900 м туман н/о -3.5 -4.3 94 -10 -10 1024.6 932.9
В 4 3600 м слаб. снег н/о -3.5 -4.4 93 -10 -10 1024.5 932.8 0.1
В 4 9000 м слаб. переохл. морось (гололёд) н/о -3.7 -4.5 94 -10 -10 1024.7 932.9
В 2 400 м слаб. ливневой снег н/о -3.5 -4.3 94 -8 -8 1025.1 933.3
В 2 600 м туман н/о -3.4 -4.2 94 -8 -8 1025.1 933.4 0.1
В 2 1400 м слаб. снег н/о -3.3 -4.1 94 -8 -8 1025.2 933.5
СВ 2 4500 м слаб. снег н/о -3.4 -4.2 94 -8 -8 1025.5 933.7
СВ 2 2000 м в посл. час снег [диам. сложн. отлож. 29 мм] 10/10 30 м
[St]
-3.3 -4.1 94 -8 -8 1025.6 933.9 -3.8 0.1 0.1 5
СВ 1 1100 м слаб. переохл. морось (гололёд) {снег} 10/10 30 м
[St]
-3.1 -3.8 95 -6 -6 1026.0 934.3
С 2 3800 м в посл. час переохл. осадки (гололёд) {морось} 10/10 60 м
[St]
-3.0 -3.8 94 -7 -7 1026.5 934.8
СВ 1 6000 м дымка {снег, морось} [диам. сложн. отлож. 29 мм] 10/10 60 м
[St]
-2.9 -3.7 94 -5 -5 1026.7 935.0 0.1
СВ 1 20 км 10/10 90 м
[St]
-2.7 -3.4 95 -5 -5 1027.2 935.5
СВ 1 25 км 10/10 90 м
[St]
-2.7 -3.5 94 -5 -5 1027.1 935.4
СВ 1 27 км {снег} [диам. сложн. отлож. 29 мм] 10/10 150 м
[St]
-2.6 -3.5 94 -5 -5 1027.0 935.4 0.0
С 2 18 км 10/10 150 м
[St]
-3.0 -3.8 94 -7 -7 1027.1 935.3
С 2 35 км 10/10 210 м
[St]
-3.7 -4.6 93 -8 -8 1027.7 935.6
С 2 40 км [диам. сложн. отлож. 29 мм] 10/10 300 м
[St]
-3.9 -4.9 93 -8 -8 1028.2 936.0 0.1
С 2 30 км н/о -4.4 -5.3 93 -9 -9 1029.0 936.6
С 2 30 км н/о -5.0 -6.1 92 -9 -9 1029.6 936.9
В 1 40 км [диам. сложн. отлож. 29 мм] 10/10 450 м
[Sc]
-5.1 -6.1 93 -8 -8 1029.6 936.9 -2.5 0.0
В 1 40 км 10/10 420 м
[Sc]
-5.4 -6.6 91 -8 -8 1029.9 937.1
штиль 0 40 км 10/10 400 м
[Sc]
-5.1 -6.1 93 -6 -6 1030.1 937.4
С 1 20 км н/о -5.7 -6.9 91 -8 -8 1031.1 938.1 0.1
С 1 20 км н/о -5.7 -6.7 93 -8 -8 1030.9 937.9
СВ 1 21 км н/о -6.2 -7.4 91 -9 -9 1031.3 938.1
С 1 22 км н/о -6.6 -7.8 91 -9 -9 1031.0 937.7
З 2 35 км н/о -6.4 -7.6 91 -11 -11 1030.9 937.6
З 2 35 км н/о -6.7 -7.9 91 -11 -11 1030.6 937.3
З 1 30 км н/о -6.9 -8.2 90 -9 -9 1030.7 937.3 0.1
З 2 25 км н/о -7.3 -8.5 91 -12 -12 1031.1 937.5
З 2 21 км н/о -7.3 -8.5 91 -12 -12 1030.5 937.0
З 3 25 км [диам. сложн. отлож. 29 мм] 10/10 120 м
[St]
-7.4 -8.6 91 -13 -13 1030.2 936.7 -7.5 0.0 5
З 4 28 км 10/10 120 м
[St]
-7.4 -8.6 91 -14 -14 1030.1 936.6
З 5 25 км [диам. сложн. отлож. 29 мм] 10/10 120 м
[St]
-6.9 -8.1 91 -14 -14 1030.3 936.9 0.1
З 5 25 км [диам. сложн. отлож. 29 мм] 9/6 120 м
[St Ci fib]
-6.7 -7.9 91 -14 -14 1030.3 937.0 0.1
З 4 20 км 9/8 150 м
[St Ci]
-6.2 -7.4 91 -13 -12 1030.6 937.4
З 4 25 км 10/8 180 м
[St Cs]
-5.7 -6.9 91 -12 -12 1029.7 936.8
З 4 30 км [диам. сложн. отлож. 29 мм] 10/8 210 м
[St Cs]
-5.8 -7.0 91 -12 -12 1029.2 936.3
З 5 35 км 9/3 210 м
[St Cs]
-6.0 -7.3 90 -13 -13 1028.2 935.3
З 4 35 км 9/1 210 м
[St Cs]
-5.6 -6.8 91 -12 -12 1027.7 935.0
З 4 30 км [диам. сложн. отлож. 28 мм] 9/0
[Ac trans Ci fib]
-6.1 -7.3 91 -13 -13 1027.7 934.8 0.1
З 5 13 км н/о -6.6 -7.8 91 -14 -14 1027.2 934.2
З 5 12 км н/о -6.6 -7.8 91 -14 -14 1027.0 934.0
З 6
{11}
27 км [диам. сложн. отлож. 28 мм] 4/0
[Ac trans Ci fib]
-6.7 -7.8 92 -15 -15 1026.7 933.7 -5.4
З 7
{12}
25 км 3/1 270 м
[St Ci fib]
-7.1 -8.3 91 -16 -16 1026.9 933.8
З 7
{12}
22 км 9/9 240 м
[St]
-6.5 -7.6 92 -15 -15 1026.1 933.2
З 5
{13}
9000 м дымка н/о -6.0 -7.1 92 -13 -13 1025.3 932.7 0.1
З 7-13
{13}
7000 м в посл. час снег н/о -5.4 -6.5 92 -14 -14 1024.9 932.5
З 7
{14}
6000 м дымка н/о -5.3 -6.2 93 -14 -14 1023.6 931.4
З 8-14
{15}
6000 м слаб. ливневой снег н/о -5.3 -6.2 93 -14 -14 1022.0 929.9
З 8-14
{17}
7000 м слаб. ливневой снег н/о -5.2 -6.2 93 -14 -14 1021.2 929.2
З 8-14
{16}
6000 м в посл. час снег н/о -5.3 -6.3 93 -14 -14 1021.1 929.1
З 8-14
{17}
6000 м дымка н/о -5.3 -6.3 93 -14 -14 1020.0 928.1 0.1
З 7-12
{15}
2900 м слаб. снег н/о -5.0 -6.0 93 -13 -13 1019.6 927.8
З 7-14
{12}
1400 м слаб. снег н/о -4.3 -5.1 94 -13 -13 1018.5 927.1
З 9-15
{17}
800 м слаб. снег [диам. сложн. отлож. 25 мм] 10/10 30 м
[Frnb]
-4.1 -4.9 94 -13 -13 1017.4 926.1 -7.1 0.5 0.5 6
З 8-13
{15}
500 м слаб. снег {туман} ?/? -3.5 -4.3 94 -12 -12 1017.7 926.6
З 7-14
{14}
800 м туман, небо видно {снег} 10/10 30 м
[Frnb]
-3.3 -4.0 95 -11 -11 1016.8 925.9
З 7-14
{15}
400 м слаб. снег {туман} [диам. сложн. отлож. 25 мм] ?/? -2.8 -3.5 95 -11 -11 1016.3 925.6 0.1
З 6-11
{15}
600 м слаб. снег {туман} ?/? -2.6 -3.3 95 -10 -10 1016.5 925.8
З 6-14
{15}
600 м слаб. снег {туман} ?/? -2.4 -3.0 96 -10 -10 1016.0 925.4
З 7-12
{15}
800 м слаб. снег {туман} [диам. сложн. отлож. 25 мм] 10/10 30 м
[Frnb]
-2.1 -2.7 96 -10 -10 1015.1 924.7 3
З 7-13
{15}
2000 м слаб. снег {туман} 10/10 60 м
[Frnb]
-1.9 -2.5 96 -10 -10 1014.5 924.2
З 7-15
{14}
7000 м слаб. снег 10/10 60 м
[Frnb]
-1.6 -2.2 96 -9 -9 1014.8 924.6
З 6-13
{15}
1500 м слаб. снег {туман} [диам. сложн. отлож. 25 мм] 10/10 60 м
[Frnb]
-1.3 -1.9 96 -8 -8 1015.6 925.4 0.1
З 7-13
{15}
2300 м слаб. снег н/о -1.2 -1.7 96 -9 -9 1016.2 926.0
З 6-11
{12}
4500 м слаб. снег н/о -1.1 -1.6 96 -8 -8 1016.8 926.6
З 7-13
{15}
15 км слаб. снег [диам. сложн. отлож. 25 мм] 10/10 60 м
[Frnb]
-0.9 -1.3 97 -8 -8 1017.4 927.2 -0.9 3
З 8-14
{17}
15 км в посл. час снег 9/9 90 м
[Sc]
-0.9 -1.3 97 -9 -9 1018.4 928.1
З 7-12
{13}
22 км 9/9 120 м
[Sc]
-1.0 -1.6 96 -9 -9 1018.9 928.5
З 7-14
{17}
6000 м слаб. ливневой снег н/о -0.9 -1.3 97 -8 -8 1019.7 929.3 0.1
З 7-12
{13}
5000 м слаб. ливневой дождь н/о -0.9 -1.4 96 -8 -8 1019.9 929.5
З 7
{13}
6000 м слаб. ливневой дождь н/о -0.9 -1.3 97 -8 -8 1020.4 929.9
З 6
{17}
4400 м слаб. ливневой снег н/о -1.0 -1.5 96 -8 -8 1021.1 930.5 0.0
З 6-11
{11}
9000 м слаб. ливневой снег н/о -1.0 -1.4 97 -8 -8 1021.2 930.6
З 5 17 км в посл. час дождь н/о -1.2 -1.8 96 -8 -8 1021.6 930.9
З 8-14
{13}
14 км слаб. ливневой снег н/о -1.3 -1.9 96 -9 -9 1022.1 931.3 0.1
З 6
{15}
20 км н/о -1.5 -2.1 96 -9 -9 1023.1 932.2
З 7
{13}
12 км слаб. ливневой снег н/о -1.3 -1.9 96 -9 -9 1022.9 932.1
З 5
{15}
25 км [диам. сложн. отлож. 25 мм] 9/9 270 м
[Sc]
-1.9 -2.6 95 -9 -9 1023.7 932.6 -1.9 0.0 3.3 9
З 5
{11}
22 км 9/9 150 м
[Sc]
-1.7 -2.3 96 -8 -8 1024.4 933.3
З 5
{11}
30 км 9/8 240 м
[St Ac As]
-1.7 -2.3 96 -8 -8 1024.7 933.6
З 6-11
{11}
35 км [диам. сложн. отлож. 25 мм] 10/9 240 м
[St]
-1.6 -2.3 95 -9 -9 1024.6 933.5 0.1
З 7-14
{13}
30 км 10/10 120 м
[Sc]
-1.2 -1.8 96 -9 -9 1024.3 933.4
З 7-13
{14}
30 км 10/9 240 м
[St]
-1.2 -1.9 95 -9 -9 1023.7 932.8
З 6-13
{14}
25 км [диам. сложн. отлож. 25 мм] 10/10 180 м
[St]
-1.3 -2.0 95 -8 -8 1022.8 932.0
З 7-13
{15}
25 км 10/10 270 м
[Sc]
-1.1 -1.8 95 -9 -9 1021.8 931.1
З 7-13
{14}
10 км слаб. снег 10/9 330 м
[Frnb]
-1.2 -1.9 95 -9 -9 1021.7 931.0
З 9-16
{16}
18 км в посл. час снег [диам. сложн. отлож. 23 мм] 10/10 120 м
[St]
-1.4 -2.0 96 -10 -10 1020.7 930.0 0.1
З 8-14
{18}
3600 м слаб. ливневой снег н/о -1.3 -1.9 96 -9 -9 1020.5 929.9
З 9-15
{16}
300 м сильн. снег н/о -1.2 -1.7 96 -10 -10 1020.7 930.1
З 7-13
{18}
1000 м слаб. снег [диам. сложн. отлож. 23 мм] 10/10 60 м
[Frnb]
-1.0 -1.4 97 -9 -9 1021.0 930.4 -1.0 0.9
З 7-13
{15}
300 м слаб. снег {туман} ?/? -0.8 -1.2 97 -8 -8 1020.7 930.2
З 6-12
{14}
200 м слаб. снег {туман} ?/? -0.8 -1.2 97 -8 -8 1020.8 930.3
З 7-12
{15}
100 м слаб. ледяной дождь н/о -0.4 -0.7 98 -8 -8 1020.0 929.7 0.1
З 7-13
{16}
100 м слаб. ледяной дождь н/о -0.2 -0.5 98 -8 -8 1020.2 930.0
З 7-12
{13}
100 м слаб. ледяной дождь н/о -0.1 -0.4 98 -7 -7 1020.0 929.8
З 6-11
{18}
1500 м в посл. час снег н/о -0.1 -0.5 97 -7 -7 1020.0 929.8 1
З 6
{12}
1500 м слаб. снег н/о -0.1 -0.4 98 -7 -7 1020.0 929.8
З 6
{12}
100 м слаб. ливневой снег н/о -0.1 -0.4 98 -7 -7 1020.0 929.8 0.1
З 5-10
{13}
100 м снег н/о -0.1 -0.4 98 -6 -6 1019.2 929.1 0.1
З 5-10
{15}
400 м слаб. дождь н/о -0.3 -0.6 98 -7 -7 1019.3 929.1
З 6-11
{13}
5000 м слаб. дождь н/о -0.2 -0.5 98 -7 -7 1018.7 928.6
З 6-11
{15}
200 м слаб. снег [диам. сложн. отлож. 20 мм] ?/? -0.1 -0.4 98 -7 -7 1018.1 928.1 -1.0 4 5.3 13
З 8-16
{15}
8000 м в посл. час туман {снег} 10/10 60 м
[St]
-0.1 -0.4 98 -8 -8 1017.6 927.6
З 8-16
{14}
15 км 10/10 120 м
[St]
-0.1 -0.5 97 -8 -8 1017.9 927.9
З 8-14
{16}
25 км {снег, туман} [диам. сложн. отлож. 20 мм] 10/9 150 м
[St]
-0.1 -0.5 97 -8 -8 1018.0 928.0 0.1
З 7-15
{18}
17 км слаб. снег 10/9 300 м
[Frnb]
-0.1 -0.4 98 -7 -7 1018.7 928.6
З 7-14
{15}
20 км слаб. снег 10/10 330 м
[Sc]
0.0 -0.4 97 -7 -7 1018.4 928.4
З 8-15
{18}
18 км слаб. снег {туман} [диам. сложн. отлож. 10 мм] 10/10 360 м
[Sc]
0.0 -0.4 97 -8 -8 1018.0 928.0 0.2
З 7
{14}
12 км в посл. час снег 10/10 360 м
[Sc]
0.0 -0.5 96 -7 -7 1018.0 928.0
З 7-12
{14}
25 км слаб. снег 10/10 270 м
[Sc]
0.0 -0.5 96 -7 -7 1017.7 927.8
З 6-12
{17}
30 км слаб. снег 10/10 600 м
[Sc]
0.0 -0.7 95 -7 -7 1017.2 927.3 0.1
З 8-16
{14}
15 км слаб. дождь н/о 0.0 -0.7 95 -8 -8 1017.1 927.2
З 7-13
{17}
8000 м слаб. снег 10/10 150 м
[Sc]
0.0 -0.6 96 -7 -7 1016.5 926.7 0.0 0.5
З 8-18
{16}
14 км слаб. снег 10/10 180 м
[Frnb]
-0.1 -0.7 96 -8 -8 1016.1 926.3
З 8-15
{18}
22 км слаб. снег 10/10 210 м
[Sc]
0.0 -0.6 96 -8 -8 1016.5 926.7
З 8-15
{18}
1800 м слаб. ливневой снег н/о 0.0 -0.4 97 -8 -8 1016.2 926.4 0.1
Местоположение метеостанции Пршимда (Чехия): широта 49.67 долгота 12.67 высота над уровнем моря 748 м.
В архиве по умолчанию представлена погода в Пршимде за последнюю неделю. Архивные данные за месяц целиком и за предыдущие месяцы, начиная с января 2011 года, Вы можете получить, выбрав интересующий диапазон дат из раскрывающегося списка и нажав кнопку "Найти!".
*Определитесь, кто Вы:
Внимание! Время в таблицах - всемирное. Для получения местного времени необходимо прибавить поправку, которая равна 1 ч.
Смотрите также архив погоды в соседних городах и на ближайших метеорологических станциях:
Партнеры нашего сайта:      
Пояснения к столбцам:
  • Ветер - указаны скорость ветра в м/с - средняя за 10 мин, порывы в срок и между сроками (в фигурных скобках) и направление, откуда дует ветер: С - северный,
  • СВ - северо-восточный, В - восточный, ЮВ - юго-восточный, Ю - южный, ЮЗ - юго-западный, З - западный, СЗ - северо-западный.
  • Видимость - горизонтальная дальность видимости в метрах или километрах. При видимости от 1 до 10 км при отсутствии осадков обычно наблюдается дымка, при ухудшении видимости до 1 км и менее - туман. В сухую погоду видимость может ухудшаться дымом, пылью или мглою.
  • Явления - указаны атмосферные явления, наблюдавшиеся в срок или в последний час перед сроком; фигурными скобками обозначены явления, наблюдавшиеся между сроками (за 1-3 часа до срока); квадратными скобками обозначены град или гололедные отложения с указанием их диаметра в мм.
  • Облачность - указаны через наклонную черту общая и нижняя облачность в баллах и высота нижней границы облаков в метрах; квадратными скобками обозначены формы облаков: Ci - перистые, Cs - перисто-слоистые, Cc - перисто-кучевые, Ac - высококучевые, As - высокослоистые, Sc - слоисто-кучевые, Ns - слоисто-дождевые, Cu - кучевые, Cb - кучево-дождевые. Подробнее классификацию облаков см. в Атласе облаков (PDF).
  • T - Температура воздуха - температура, измеренная на высоте 2 м над землей.
  • Td - Температура точки росы - температура, при понижении до которой содержащийся в воздухе водяной пар достигнет насыщения.
  • f - Относительная влажность воздуха - влажноcть воздуха, измеренная на высоте 2 м над землей.
  • Te - Эффективная температура - температура, которую ощущает одетый по сезону человек в тени. Характеристика душности погоды. При расчете учитывается влияние влажности воздуха и скорости ветра на теплоощущения человека.
  • Tes - Эффективная температура на солнце - температура, которую ощущает человек, с поправкой на солнечный нагрев. Характеристика знойности погоды. Зависит от высоты солнца над горизонтом, облачности и скорости ветра. Ночью, в пасмурную погоду, а также при ветре 12 м/с и более поправка равна нулю.
  • P - Атмосферное давление - приведенное к уровню моря атмосферное давление.
  • Po - Атмосферное давление - измеренное на уровне метеостанции атмосферное давление.
  • Tmin - Минимальная температура - минимум температуры воздуха на высоте 2 м над землей.
  • Tmax - Максимальная температура - максимум температуры воздуха на высоте 2 м над землей.
  • R - Количество осадков - Количество выпавших осадков за период времени, мм. При наведении курсора мыши на число - период времени, за который выпало указанное количество осадков.
  • R24 - Количество осадков - Количество выпавших осадков за 24 часа, мм.
  • S - Снежный покров - Высота снежного покрова, см. При наведении курсора мыши на число - состояние снежного покрова и степень покрытия местности в баллах.